Location: ???????
(55.5931°N, 39.3286°E)
Time: 12:53:21
(UTC+00:00)

Cosmos 1743 - Pass Details

Date: 14 April 2024
Orbit: 475 x 491 km, 82.5° (Epoch: 24 May)

Event Time Altitude Azimuth Distance (km) Brightness Sun altitude
Rises 00:17:52 0° 337° (NNW) 2,597 6.6 -15.4°
Reaches altitude 10° 00:20:23 10° 320° (NW) 1,705 5.4 -15.2°
Maximum altitude 00:23:07 20° 273° (W) 1,208 4.2 -14.9°
Enters shadow 00:23:14 20° 271° (W) 1,209 4.2 -14.9°
